TimeEDT,TemperatureF,Dew PointF,Humidity,Sea Level PressureIn,VisibilityMPH,Wind Direction,Wind SpeedMPH,Gust SpeedMPH,PrecipitationIn,Events,Conditions,WindDirDegrees,DateUTC
12:15 AM,66.9,57.6,72,29.80,10.0,SSE,5.8,-,N/A,,Clear,160,2013-06-30 04:15:00
12:35 AM,67.1,56.7,69,29.80,10.0,South,3.5,-,N/A,,Clear,170,2013-06-30 04:35:00
12:55 AM,67.1,56.5,69,29.80,10.0,SSE,4.6,-,N/A,,Clear,160,2013-06-30 04:55:00
1:15 AM,66.2,56.8,72,29.80,10.0,SSE,3.5,-,N/A,,Clear,160,2013-06-30 05:15:00
1:35 AM,66.6,57.0,71,29.81,10.0,SSE,4.6,-,N/A,,Clear,150,2013-06-30 05:35:00
1:55 AM,66.9,57.4,71,29.81,10.0,SSE,4.6,-,N/A,,Clear,160,2013-06-30 05:55:00
2:15 AM,67.3,57.4,70,29.80,10.0,South,3.5,-,N/A,,Clear,180,2013-06-30 06:15:00
2:35 AM,66.4,57.4,73,29.80,10.0,Calm,Calm,-,N/A,,Clear,0,2013-06-30 06:35:00
2:55 AM,65.5,57.4,75,29.80,10.0,SSE,4.6,-,N/A,,Clear,160,2013-06-30 06:55:00
3:15 AM,65.3,57.6,76,29.80,10.0,SSE,5.8,-,N/A,,Clear,150,2013-06-30 07:15:00
3:35 AM,64.6,57.6,78,29.80,10.0,SSE,5.8,-,N/A,,Clear,160,2013-06-30 07:35:00
3:55 AM,66.6,56.8,71,29.80,10.0,South,4.6,-,N/A,,Scattered Clouds,170,2013-06-30 07:55:00
4:15 AM,66.9,57.2,71,29.79,10.0,SSE,4.6,-,N/A,,Scattered Clouds,160,2013-06-30 08:15:00
4:35 AM,66.6,57.2,72,29.79,10.0,South,3.5,-,N/A,,Scattered Clouds,190,2013-06-30 08:35:00
4:55 AM,63.0,57.6,82,29.79,10.0,SSE,3.5,-,N/A,,Clear,160,2013-06-30 08:55:00
5:15 AM,63.5,57.7,81,29.79,10.0,SSE,3.5,-,N/A,,Scattered Clouds,160,2013-06-30 09:15:00
5:35 AM,65.7,57.4,75,29.79,10.0,SSE,4.6,-,N/A,,Scattered Clouds,150,2013-06-30 09:35:00
5:55 AM,64.9,57.4,76,29.80,10.0,Calm,Calm,-,N/A,,Clear,0,2013-06-30 09:55:00
6:15 AM,64.2,57.6,79,29.80,10.0,SSE,4.6,-,N/A,,Clear,150,2013-06-30 10:15:00
6:35 AM,64.9,57.6,77,29.81,10.0,SSE,4.6,-,N/A,,Scattered Clouds,150,2013-06-30 10:35:00
6:55 AM,65.7,57.4,75,29.81,10.0,SSE,3.5,-,N/A,,Clear,150,2013-06-30 10:55:00
7:15 AM,66.7,57.4,72,29.82,10.0,Calm,Calm,-,N/A,,Clear,0,2013-06-30 11:15:00
7:35 AM,63.7,58.3,83,29.83,10.0,Calm,Calm,-,N/A,,Clear,0,2013-06-30 11:35:00
7:55 AM,66.2,59.9,80,29.83,10.0,SSE,3.5,-,N/A,,Clear,150,2013-06-30 11:55:00
8:15 AM,66.4,59.5,79,29.84,10.0,Calm,Calm,-,N/A,,Clear,0,2013-06-30 12:15:00
8:35 AM,67.3,60.6,79,29.84,10.0,Calm,Calm,-,N/A,,Clear,0,2013-06-30 12:35:00
8:55 AM,67.5,60.3,78,29.85,10.0,SSE,3.5,-,N/A,,Clear,150,2013-06-30 12:55:00
9:15 AM,68.9,60.6,75,29.85,10.0,Calm,Calm,-,N/A,,Clear,0,2013-06-30 13:15:00
9:35 AM,70.7,61.0,71,29.86,10.0,Calm,Calm,-,N/A,,Clear,0,2013-06-30 13:35:00
9:55 AM,71.2,60.8,69,29.86,10.0,Calm,Calm,-,N/A,,Clear,0,2013-06-30 13:55:00
10:15 AM,71.8,60.4,67,29.86,10.0,SW,4.6,-,N/A,,Clear,230,2013-06-30 14:15:00
10:35 AM,72.0,59.9,66,29.86,10.0,Calm,Calm,-,N/A,,Clear,0,2013-06-30 14:35:00
10:55 AM,73.9,62.1,66,29.86,10.0,Calm,Calm,-,N/A,,Clear,0,2013-06-30 14:55:00
11:15 AM,73.6,60.4,63,29.87,10.0,South,3.5,-,N/A,,Clear,180,2013-06-30 15:15:00
11:35 AM,73.2,59.9,63,29.86,10.0,Calm,Calm,-,N/A,,Scattered Clouds,0,2013-06-30 15:35:00
11:55 AM,75.4,60.4,60,29.86,10.0,South,3.5,-,N/A,,Scattered Clouds,180,2013-06-30 15:55:00
12:15 PM,74.5,60.8,62,29.86,10.0,South,5.8,-,N/A,,Scattered Clouds,190,2013-06-30 16:15:00
12:35 PM,75.9,58.6,55,29.86,10.0,South,3.5,-,N/A,,Clear,190,2013-06-30 16:35:00
12:55 PM,76.1,59.2,56,29.87,10.0,SSW,5.8,-,N/A,,Scattered Clouds,210,2013-06-30 16:55:00
1:15 PM,77.2,59.9,55,29.87,10.0,WSW,8.1,-,N/A,,Clear,240,2013-06-30 17:15:00
1:35 PM,76.6,58.6,54,29.87,10.0,SSW,3.5,-,N/A,,Scattered Clouds,200,2013-06-30 17:35:00
1:55 PM,75.7,57.7,53,29.87,10.0,WSW,5.8,-,N/A,,Mostly Cloudy,240,2013-06-30 17:55:00
2:15 PM,77.7,58.6,52,29.86,10.0,WSW,6.9,-,N/A,,Scattered Clouds,250,2013-06-30 18:15:00
2:35 PM,77.7,58.8,52,29.86,10.0,WSW,8.1,-,N/A,,Scattered Clouds,250,2013-06-30 18:35:00
2:55 PM,76.5,58.5,54,29.85,10.0,West,4.6,-,N/A,,Scattered Clouds,260,2013-06-30 18:55:00
3:15 PM,77.7,58.1,51,29.85,10.0,South,4.6,-,N/A,,Mostly Cloudy,190,2013-06-30 19:15:00
3:35 PM,78.4,60.1,53,29.85,10.0,SSW,3.5,-,N/A,,Mostly Cloudy,210,2013-06-30 19:35:00
3:55 PM,78.6,57.2,48,29.85,10.0,West,5.8,-,N/A,,Scattered Clouds,260,2013-06-30 19:55:00
4:15 PM,79.0,58.5,49,29.84,10.0,WSW,9.2,-,N/A,,Clear,240,2013-06-30 20:15:00
4:35 PM,79.9,58.1,47,29.84,10.0,WNW,8.1,-,N/A,,Scattered Clouds,290,2013-06-30 20:35:00
4:55 PM,79.3,58.3,48,29.84,10.0,West,6.9,-,N/A,,Scattered Clouds,270,2013-06-30 20:55:00
5:15 PM,79.2,57.2,47,29.84,10.0,Calm,Calm,-,N/A,,Clear,0,2013-06-30 21:15:00
5:35 PM,79.3,55.9,44,29.83,10.0,WSW,3.5,-,N/A,,Clear,250,2013-06-30 21:35:00
5:55 PM,79.0,56.5,46,29.83,10.0,WNW,4.6,-,N/A,,Clear,300,2013-06-30 21:55:00
6:15 PM,77.5,56.1,47,29.84,10.0,West,4.6,-,N/A,,Clear,280,2013-06-30 22:15:00
6:35 PM,77.9,57.7,50,29.85,10.0,Calm,Calm,-,N/A,,Clear,0,2013-06-30 22:35:00
6:55 PM,77.2,56.8,49,29.85,10.0,WNW,3.5,-,N/A,,Clear,290,2013-06-30 22:55:00
7:15 PM,76.3,57.7,53,29.85,10.0,West,3.5,-,N/A,,Clear,280,2013-06-30 23:15:00
7:35 PM,75.6,57.9,54,29.85,10.0,West,3.5,-,N/A,,Clear,280,2013-06-30 23:35:00
7:55 PM,74.5,57.9,56,29.85,10.0,Calm,Calm,-,N/A,,Clear,0,2013-06-30 23:55:00
8:35 PM,73.0,59.9,63,29.87,10.0,SSE,3.5,-,N/A,,Clear,150,2013-07-01 00:35:00
8:55 PM,72.5,59.9,64,29.87,10.0,SE,4.6,-,N/A,,Clear,140,2013-07-01 00:55:00
9:15 PM,71.8,59.9,66,29.87,10.0,ESE,4.6,-,N/A,,Clear,110,2013-07-01 01:15:00
9:35 PM,71.8,60.6,68,29.87,10.0,ESE,4.6,-,N/A,,Scattered Clouds,120,2013-07-01 01:35:00
9:55 PM,72.0,61.7,70,29.87,10.0,SE,5.8,-,N/A,,Mostly Cloudy,130,2013-07-01 01:55:00
10:15 PM,71.2,61.7,72,29.88,10.0,SE,3.5,-,N/A,,Mostly Cloudy,130,2013-07-01 02:15:00
10:35 PM,71.6,61.2,70,29.88,10.0,South,4.6,-,N/A,,Overcast,180,2013-07-01 02:35:00
10:55 PM,70.7,61.7,73,29.88,10.0,SE,9.2,-,N/A,,Overcast,130,2013-07-01 02:55:00
11:15 PM,70.2,60.4,71,29.89,10.0,ESE,9.2,-,N/A,Rain,Light Rain,120,2013-07-01 03:15:00
11:35 PM,67.1,60.4,79,29.89,10.0,SSE,8.1,-,N/A,,Overcast,160,2013-07-01 03:35:00
11:55 PM,65.3,61.0,86,29.90,7.0,SSE,4.6,-,0.02,Rain,Rain,160,2013-07-01 03:55:00